Regional Weather Roundup
Issued by NWS Charleston, SC

Current Version | Previous Version | Text Only | Print | Product List | Glossary Off
Versions: 1 2 3 4 5 6 7 8 9 10 11 12 13 14 15 16 17 18 19 20 21 22 23 24 25 26 27 28 29 30 31 32 33 34 35 36 37 38 39 40 41 42 43 44 45 46 47 48 49 50
000 ASUS42 KCHS 251111 RWRCHS REGIONAL WEATHER ROUNDUP NATIONAL WEATHER SERVICE CHARLESTON SC 600 AM EST SAT FEB 25 2017 NOTE: "FAIR" INDICATES FEW OR NO CLOUDS BELOW 12,000 FEET WITH NO SIGNIFICANT WEATHER AND/OR OBSTRUCTIONS TO VISIBILITY. NOT ALL STATIONS ARE QUALITY CONTROLLED. USE DATA WITH CAUTION... ESPECIALLY DEWPOINT OBSERVATIONS. SCZ027-030-031-034>040-042>050-251200- ...SOUTHEAST SOUTH CAROLINA... CITY SKY/WX TMP DP RH WIND PRES REMARKS N CHARLESTON PTCLDY 58 57 97 SW6 29.81R WATERFRONT PRK N/A 61 61 100 CALM 29.78S MOUNT PLEASANT FOG 54 52 94 SW3 29.81R VSB 1 JOHNS ISLAND FAIR 59 59 100 SW5 29.81R FOG PINOPOLIS N/A N/A N/A N/A SW6 29.70R MONCKS CORNER PTSUNNY 54 52 94 CALM 29.80R SUMMERVILLE FAIR 54 54 100 CALM 29.82R BEAUFORT MCAS CLOUDY 62 62 100 SW6 29.82R BEAUFORT ARPT PTSUNNY 61 61 100 SW3 29.82R HILTON HEAD IS NOT AVBL WALTERBORO MOSUNNY 55 55 100 S3 29.82R ALLENDALE CLOUDY 61 61 100 CALM 29.79S ...SOUTHERN MIDLANDS AND PEE DEE... CITY SKY/WX TMP DP RH WIND PRES REMARKS GEORGETOWN FOG 50 50 100 CALM 29.80S VSB 1/4 KINGSTREE FOG 50 48 93 CALM 29.79R VSB 1/4 ORANGEBURG MOCLDY 58 58 100 S3 29.79S BARNWELL CLOUDY 61 61 100 CALM 29.79F AIKEN CLOUDY 59 59 100 S6 29.81F MANNING FAIR 54 54 100 MISG 29.80R COLUMBIA PTCLDY 61 58 90 S5 29.77F SUMTER PTCLDY 59 57 92 SW6 29.77R FLORENCE CLEAR 56 56 100 W7 29.79R MYRTLE BEACH FOG 53 52 96 CALM 29.79S VSB 1/4 N MYRTLE BEACH FOG 52 52 100 CALM 29.78R VSB 3/4 $$ GAZ063-065-086>088-099>101-113>116-118-119-134>141-150-251200- ...SOUTHEAST GEORGIA... CITY SKY/WX TMP DP RH WIND PRES REMARKS SAVANNAH ARPT MOCLDY 62 60 93 SW7 29.83R FOG HUNTER AAF CLEAR 63 63 100 CALM 29.81R FORT STEWART CLOUDY 62 61 99 SW6 29.81S STATESBORO MOCLDY 63 32 31 SW5 29.82R SYLVANIA PTSUNNY N/A N/A N/A SW5 29.81S CLAXTON FAIR N/A N/A N/A CALM 29.83R ...CSRA...CENTRAL AND FAR SOUTHEAST GEORGIA... CITY SKY/WX TMP DP RH WIND PRES REMARKS THOMSON PTCLDY 63 62 99 CALM 29.81F AUGUSTA-BUSH MOCLDY 63 61 93 SW8 29.77F AUGUSTA-DANIEL MOCLDY 62 58 86 SW5 29.78F SWAINSBORO CLOUDY 61 61 100 S3 29.81S VIDALIA MOCLDY 63 63 100 SW6 29.82S EASTMAN FAIR 61 61 100 S3 29.84S HAZLEHURST CLOUDY 64 64 100 SW6 29.83R ALMA MOCLDY 61 61 100 SW3 29.84R WAYCROSS PTCLDY 65 65 100 W6 29.85R JESUP CLOUDY 63 61 94 CALM 29.84S FOG BAXLEY MOCLDY 61 61 100 CALM 29.83S BRUNSWICK CLOUDY 63 63 100 W5 29.85R SAINT SIMONS FOG 62 62 100 W6 29.84R VSB 3/4 $$ SCZ027-028-034-036>038-045-046-048>050-GAZ119-141-251200- ...LAKE AND SUPPLEMENTAL COASTAL OBSERVATIONS... STATION/POSITION TIME TEMP WIND PRES WAVE SWELL AIR SEA DIR/SP/G HT/PER HT/PER/DIR (UTC) (F) (DEG/KT/KT) (MB) (FT/S) (FT/S/D) WINYAH BAY NOT AVBL LAKE MURRAY 1020 62 230/ 7/ 9 1008.1 ACE BASIN NERRS NOT AVBL FORT PULASKI 1048 64 63 250/ 4/ 6 1010.2R SAPELO ISLAND 1000 64 230/ 7 1009.0 $$ ANZ835-935-AMZ111-154-330-350-352-354-370-450-454-472-251200- ...C-MAN AND BUOY OBSERVATIONS... STATION/POSITION TIME TEMP WIND PRES WAVE SWELL AIR SEA DIR/SP/G HT/PER HT/PER/DIR (UTC) (F) (DEG/KT/KT) (MB) (FT/S) (FT/S/D) BUOY 41004 NOT AVBL BUOY 41008 0950 63 62 190/ 6/ 8 1008.5 5/11 5/ 90/11 FOLLY BEACH CMAN 1000 61 210/ 4/ 4 1009.3R CAPERS NEARSHORE 1008 59 60 200/ 4/ 4 1008.5R FRIPP NEARSHORE 1008 62 61 210/ 4/ 6 1008.8R STATION/POSITION TIME TEMP WIND PRES WAVE SWELL AIR SEA DIR/SP/G HT/PER HT/PER/DIR (UTC) (F) (DEG/KT/KT) (MB) (FT/S) (FT/S/D) 5E ST. MARYS GA 1030 64 N/A 5/10 2/100/11 FRYING PAN BUOY 1050 69 72 280/ 4/ 8 1008.4R 6/11 5/120/11 BUOY 41025 1050 70 76 210/ 4/ 6 1007.9F 8/11 8/110/11 CAPE LOOKOUT NC 1000 62 30/ 1/ 2 1007.9F BUOY 41002 1050 69 70 190/ 6/ 8 1007.0R 10/10 10/ 90/10 BUOY 41010 NOT AVBL ST AUGUSTINE FL 1100 62 67 230/ 4/ 6 1011.0R $$

USA.gov is the U.S. government's official web portal to all federal, state and local government web resources and services.